NOAA 16 DEB

Satellite information

Favourite Embed

Satellite Type and Status

DEBRISIN ORBIT

Key statistics

Satellite NOAA 16 DEB at a glance.

Uptime

9162

Days in orbit

Revolutions

≈ 14.3

Per day

Orbit

SSO

Sun Synchronous Orbit

Inclination

99.0

Latest

Satellite identification and parameters

Extended collection of information and parameters for NOAA 16 DEB.

Object identification

Identified? True

Debris? True

Object name: NOAA 16 DEB

International designator: 2000-055FW

Object number (NORAD): 41270

Object ID (CCSDS): 41270

Country: UNITED STATES OF AMERICA (US)

Current information (Y/N): Y

RCS size: SMALL

Orbital parameters

Period: 100.495 minutes

Inclination: 98.975 deg

SMA: 7160.147 km

Apoapsis: 799.622 km

Periapsis: 764.402 km

RAAN: 55.7635 deg

Eccentricy: 0.00245945

Argument of periapsis: 213.038 deg

Mean anomaly: 146.9268 deg

Mean motion: 14.32913114 rev/day

Mean motion (dot): 0.00014964 rev/day2

B* drag term: 0.0054641701 1/REarth

Two-line elements (TLE)

Creation date: Oct. 21, 2025, 6:24 p.m.

Reference frame: TEME

Reference center: EARTH

Epoch: Oct. 21, 2025, 1:38 a.m. UTC

TLE line 0: 0 NOAA 16 DEB

TLE line 1: 1 41270U 00055FW 25294.06874411 .00014964 00000-0 54642-2 0 9994

TLE line 2: 2 41270 98.9750 55.7635 0024594 213.0380 146.9268 14.32913114506563

Live tracking on map

Real-time ground track for satellite NOAA 16 DEB.

In-orbit conjunctions

A list of the most updated potential collisions computed for object NOAA 16 DEB.

Target Orbit TCA Probability of collision Miss distance Type
CZ-6A DEB LEO 2025-02-26 07:08:31 0.00032524 638.0 (m) DEBRIS
CZ-6A DEB LEO 2025-02-10 12:33:44 0.002403477 91.0 (m) DEBRIS

Associated space launch

The NOAA K, L and M POES satellites begin the fifth generation of improved environmental monitoring in support of NOAA missions. The instrument payload has significant improvements and additions/deletions. The instrument changes have effected the spacecraft subsystems and data formats.

NOAA 16 DEB was lifted into orbit during the mission ‘Titan II SLV | NOAA 16’, on board a Titan II SLV space rocket.

The launch took place on Sept. 21, 2000, 10:22 a.m. from Space Launch Complex 4W.

For more information about the launch, click the button.

Launch to space Titan II SLV | NOAA 16
Titan II SLV | NOAA 16

Agency: N/A

Status: Launch Successful

Launch date: Sept. 21, 2000, 10:22 a.m. UTC

Rocket: Titan II SLV

Launch pad: Space Launch Complex 4W

Location: Vandenberg SFB, CA, USA

...

Latest news about this satellite

There are no fresh news available about this satellite. Check back as we update our databases every day.


Newsletter sign-up

Weekly statistics, charts and insights to help you stay on top of the space industry.